| time (UTC) | temp F | wind direction | speed knots | gust knots | rain 1hr in | rain 24hr in | rain mn in | humidity % | barometer mb |
| 20260505210629 | 56 | 335 | 4.3 | 9.6 | 0.00 | 0.51 | 0.51 | 90 | 1006.5 |
| 20260505205631 | 57 | 19 | 3.5 | 10.4 | 0.00 | 0.51 | 0.51 | 91 | 1006.5 |
| 20260505204628 | 57 | 15 | 4.3 | 11.3 | 0.00 | 0.51 | 0.51 | 91 | 1006.6 |
| 20260505203626 | 57 | 330 | 2.6 | 8.7 | 0.00 | 0.51 | 0.51 | 91 | 1006.5 |
| 20260505203103 | 57 | 0 | 2.6 | 8.7 | 0.00 | 0.51 | 0.51 | 91 | 1006.5 |
| 20260505201633 | 58 | 342 | 3.5 | 8.7 | 0.00 | 0.51 | 0.51 | 90 | 1006.6 |
| 20260505200630 | 58 | 5 | 3.5 | 9.6 | 0.00 | 0.51 | 0.51 | 90 | 1006.6 |
| 20260505195627 | 58 | 11 | 4.3 | 9.6 | 0.00 | 0.51 | 0.51 | 90 | 1006.7 |
| 20260505194625 | 59 | 342 | 6.1 | 10.4 | 0.00 | 0.51 | 0.51 | 90 | 1006.9 |
| 20260505193623 | 59 | 39 | 6.1 | 11.3 | 0.00 | 0.51 | 0.51 | 90 | 1006.9 |
| 20260505192625 | 60 | 52 | 4.3 | 13.9 | 0.00 | 0.51 | 0.51 | 90 | 1006.0 |
| 20260505191621 | 59 | 347 | 8.7 | 13.9 | 0.00 | 0.51 | 0.51 | 90 | 1005.3 |
| 20260505190619 | 60 | 323 | 10.4 | 17.4 | 0.00 | 0.51 | 0.51 | 89 | 1005.9 |
| 20260505185619 | 61 | 348 | 11.3 | 19.1 | 0.00 | 0.51 | 0.51 | 88 | 1006.0 |
| 20260505184619 | 65 | 0 | 7.8 | 15.6 | 0.00 | 0.51 | 0.51 | 89 | 1005.6 |
| 20260505183619 | 65 | 355 | 6.1 | 11.3 | 0.00 | 0.51 | 0.51 | 88 | 1005.4 |
| 20260505182619 | 67 | 327 | 3.5 | 7.8 | 0.00 | 0.51 | 0.51 | 84 | 1005.6 |
| 20260505181620 | 71 | 192 | 4.3 | 10.4 | 0.00 | 0.51 | 0.51 | 83 | 1005.7 |
| 20260505180617 | 71 | 175 | 3.5 | 6.1 | 0.00 | 0.51 | 0.51 | 82 | 1005.4 |
| 20260505175617 | 71 | 240 | 4.3 | 11.3 | 0.00 | 0.51 | 0.51 | 82 | 1005.2 |
| 20260505175058 | 70 | 169 | 6.1 | 10.4 | 0.00 | 0.51 | 0.51 | 82 | 1005.1 |
| 20260505173619 | 70 | 191 | 7.0 | 10.4 | 0.00 | 0.51 | 0.51 | 83 | 1005.5 |
| 20260505172619 | 70 | 193 | 6.1 | 10.4 | 0.00 | 0.51 | 0.51 | 83 | 1005.4 |
| 20260505171619 | 70 | 203 | 6.1 | 10.4 | 0.00 | 0.51 | 0.51 | 83 | 1005.5 |
| 20260505171106 | 70 | 209 | 5.2 | 9.6 | 0.00 | 0.51 | 0.51 | 84 | 1005.4 |
| 20260505165617 | 69 | 188 | 6.1 | 11.3 | 0.00 | 0.51 | 0.51 | 84 | 1005.5 |
| 20260505164617 | 69 | 167 | 2.6 | 7.0 | 0.00 | 0.51 | 0.51 | 86 | 1005.6 |
| 20260505163618 | 69 | 144 | 1.7 | 4.3 | 0.00 | 0.51 | 0.51 | 85 | 1005.6 |
| 20260505163057 | 69 | 165 | 2.6 | 5.2 | 0.00 | 0.51 | 0.51 | 84 | 1005.5 |
| 20260505161617 | 69 | 122 | 2.6 | 6.1 | 0.00 | 0.51 | 0.51 | 84 | 1005.3 |
| 20260505161102 | 69 | 161 | 5.2 | 9.6 | 0.00 | 0.51 | 0.51 | 84 | 1005.2 |
| 20260505152615 | 68 | 179 | 5.2 | 13.0 | 0.00 | 0.51 | 0.51 | 86 | 1005.0 |
| 20260505151616 | 67 | 156 | 2.6 | 7.0 | 0.00 | 0.51 | 0.51 | 88 | 1005.2 |
| 20260505151058 | 67 | 126 | 3.5 | 6.1 | 0.00 | 0.51 | 0.51 | 88 | 1005.1 |
| 20260505140612 | 63 | 147 | 2.6 | 6.1 | 0.00 | 0.51 | 0.51 | 91 | 1005.7 |
| 20260505124603 | 61 | 150 | 4.3 | 7.8 | 0.00 | 0.51 | 0.51 | 93 | 1005.6 |
| 20260505123601 | 61 | 141 | 4.3 | 7.8 | 0.00 | 0.51 | 0.51 | 93 | 1005.6 |
| 20260505122602 | 60 | 136 | 4.3 | 7.8 | 0.00 | 0.51 | 0.51 | 93 | 1005.5 |
| 20260505121602 | 60 | 150 | 4.3 | 7.8 | 0.00 | 0.51 | 0.51 | 93 | 1005.6 |
| 20260505121103 | 60 | 134 | 4.3 | 7.8 | 0.00 | 0.51 | 0.51 | 94 | 1005.7 |
| 20260505120050 | 60 | 124 | 3.5 | 6.1 | 0.00 | 0.51 | 0.51 | 94 | 1005.5 |
| 20260505114602 | 60 | 138 | 3.5 | 6.1 | 0.00 | 0.51 | 0.51 | 94 | 1005.4 |
| 20260505113602 | 60 | 139 | 2.6 | 5.2 | 0.00 | 0.51 | 0.51 | 94 | 1005.7 |
| 20260505111604 | 60 | 128 | 1.7 | 6.1 | 0.01 | 0.51 | 0.51 | 94 | 1005.6 |
| 20260505111047 | 60 | 125 | 2.6 | 8.7 | 0.01 | 0.51 | 0.51 | 94 | 1005.5 |
| 20260505101603 | 60 | 105 | 0.9 | 4.3 | 0.01 | 0.50 | 0.50 | 94 | 1005.8 |
| 20260505100603 | 60 | 110 | 0.0 | 2.6 | 0.01 | 0.50 | 0.50 | 94 | 1006.0 |
| 20260505095610 | 60 | 61 | 0.9 | 5.2 | 0.02 | 0.50 | 0.50 | 94 | 1006.0 |
| 20260505094605 | 60 | 75 | 0.9 | 4.3 | 0.02 | 0.50 | 0.50 | 94 | 1006.0 |
| 20260505093600 | 60 | 44 | 0.9 | 3.5 | 0.02 | 0.50 | 0.50 | 94 | 1006.1 |
| 20260505091600 | 60 | 346 | 1.7 | 3.5 | 0.07 | 0.49 | 0.49 | 94 | 1006.1 |
| 20260505090602 | 60 | 342 | 0.0 | 1.7 | 0.28 | 0.49 | 0.49 | 93 | 1006.1 |
| 20260505085601 | 60 | 5 | 0.9 | 2.6 | 0.33 | 0.48 | 0.48 | 93 | 1006.1 |
| 20260505083601 | 61 | 5 | 0.9 | 2.6 | 0.41 | 0.48 | 0.48 | 92 | 1006.0 |
| 20260505082558 | 61 | 15 | 2.6 | 5.2 | 0.40 | 0.47 | 0.47 | 92 | 1006.4 |
| 20260505081600 | 61 | 338 | 2.6 | 11.3 | 0.35 | 0.42 | 0.40 | 91 | 1005.8 |
| 20260505080558 | 61 | 336 | 7.8 | 20.0 | 0.14 | 0.21 | 0.21 | 90 | 1006.1 |
| 20260505075601 | 62 | 349 | 8.7 | 22.6 | 0.10 | 0.15 | 0.15 | 88 | 1005.5 |
| 20260505074559 | 62 | 0 | 7.8 | 13.9 | 0.06 | 0.07 | 0.07 | 87 | 1005.4 |
| 20260505074034 | 63 | 333 | 2.6 | 13.0 | 0.07 | 0.07 | 0.07 | 87 | 1005.1 |
| 20260505072600 | 63 | 102 | 5.2 | 9.6 | 0.07 | 0.07 | 0.07 | 84 | 1004.0 |
| 20260505071600 | 63 | 138 | 7.0 | 11.3 | 0.07 | 0.07 | 0.07 | 85 | 1004.1 |
| 20260505070558 | 62 | 144 | 3.5 | 8.7 | 0.07 | 0.07 | 0.07 | 87 | 1004.4 |
| 20260505065558 | 63 | 107 | 2.6 | 5.2 | 0.05 | 0.05 | 0.05 | 84 | 1005.3 |
| 20260505064600 | 63 | 350 | 3.5 | 5.2 | 0.01 | 0.01 | 0.00 | 82 | 1006.1 |
| 20260505063559 | 64 | 313 | 1.7 | 6.1 | 0.00 | 0.00 | 0.00 | 80 | 1005.9 |
| 20260505062600 | 64 | 130 | 4.3 | 7.0 | 0.00 | 0.00 | 0.00 | 79 | 1005.4 |
| 20260505061602 | 64 | 119 | 2.6 | 7.8 | 0.00 | 0.00 | 0.00 | 78 | 1005.8 |
| 20260505060558 | 65 | 287 | 3.5 | 7.8 | 0.00 | 0.00 | 0.00 | 77 | 1006.6 |
| 20260505055558 | 66 | 121 | 2.6 | 5.2 | 0.00 | 0.00 | 0.00 | 73 | 1005.8 |
| 20260505054559 | 66 | 153 | 0.9 | 3.5 | 0.00 | 0.00 | 0.00 | 71 | 1006.6 |
| 20260505053557 | 66 | 124 | 1.7 | 4.3 | 0.00 | 0.00 | 0.00 | 70 | 1006.2 |
| 20260505052600 | 66 | 190 | 4.3 | 7.8 | 0.00 | 0.00 | 0.00 | 70 | 1006.4 |
| 20260505051552 | 66 | 139 | 4.3 | 10.4 | 0.00 | 0.00 | 0.00 | 70 | 1005.9 |
| 20260505050554 | 66 | 96 | 3.5 | 7.0 | 0.00 | 0.00 | 0.00 | 71 | 1006.0 |
| 20260505041552 | 65 | 139 | 1.7 | 2.6 | 0.00 | 0.00 | 0.00 | 72 | 1006.8 |
| 20260505040549 | 66 | 152 | 1.7 | 4.3 | 0.00 | 0.00 | 0.00 | 72 | 1006.9 |
| 20260505035549 | 66 | 167 | 3.5 | 5.2 | 0.00 | 0.00 | 0.00 | 71 | 1006.9 |
| 20260505034550 | 67 | 0 | 3.5 | 7.0 | 0.00 | 0.00 | 0.00 | 71 | 1007.2 |
| 20260505034028 | 67 | 163 | 3.5 | 7.0 | 0.00 | 0.00 | 0.00 | 70 | 1007.2 |
| 20260505032550 | 67 | 170 | 4.3 | 7.8 | 0.00 | 0.00 | 0.00 | 71 | 1007.3 |
| 20260505031548 | 67 | 176 | 4.3 | 7.8 | 0.00 | 0.00 | 0.00 | 70 | 1007.2 |
| 20260505030549 | 67 | 160 | 4.3 | 7.0 | 0.00 | 0.00 | 0.00 | 70 | 1007.3 |
| 20260505025543 | 67 | 174 | 4.3 | 6.1 | 0.00 | 0.00 | 0.00 | 70 | 1007.6 |
| 20260505024542 | 67 | 173 | 4.3 | 6.1 | 0.00 | 0.00 | 0.00 | 70 | 1007.3 |
| 20260505023541 | 68 | 183 | 5.2 | 9.6 | 0.00 | 0.00 | 0.00 | 69 | 1007.3 |
| 20260505022542 | 68 | 166 | 5.2 | 8.7 | 0.00 | 0.00 | 0.00 | 69 | 1007.0 |
| 20260505021543 | 67 | 169 | 4.3 | 5.2 | 0.00 | 0.00 | 0.00 | 69 | 1006.8 |
| 20260505020543 | 68 | 174 | 4.3 | 7.8 | 0.00 | 0.00 | 0.00 | 69 | 1006.7 |
| 20260505015543 | 68 | 178 | 4.3 | 7.0 | 0.00 | 0.00 | 0.00 | 68 | 1006.6 |
| 20260505015019 | 68 | 202 | 3.5 | 6.1 | 0.00 | 0.00 | 0.00 | 67 | 1006.6 |
| 20260505013543 | 69 | 173 | 3.5 | 5.2 | 0.00 | 0.00 | 0.00 | 67 | 1006.4 |
| 20260505012536 | 69 | 188 | 4.3 | 6.1 | 0.00 | 0.00 | 0.00 | 66 | 1006.4 |
| 20260505011536 | 70 | 182 | 5.2 | 7.8 | 0.00 | 0.00 | 0.00 | 65 | 1006.2 |
| 20260505010535 | 70 | 180 | 5.2 | 9.6 | 0.00 | 0.00 | 0.00 | 64 | 1006.1 |
| 20260505005535 | 71 | 179 | 5.2 | 8.7 | 0.00 | 0.00 | 0.00 | 62 | 1006.0 |
| 20260505004539 | 71 | 157 | 6.1 | 10.4 | 0.00 | 0.00 | 0.00 | 62 | 1006.0 |
| 20260505003531 | 71 | 160 | 6.1 | 13.0 | 0.00 | 0.00 | 0.00 | 62 | 1006.0 |
| 20260505002531 | 72 | 174 | 7.0 | 12.2 | 0.00 | 0.00 | 0.00 | 61 | 1006.0 |
| 20260505001530 | 72 | 167 | 7.0 | 10.4 | 0.00 | 0.00 | 0.00 | 60 | 1005.9 |
| 20260505000530 | 72 | 163 | 7.8 | 16.5 | 0.00 | 0.00 | 0.00 | 61 | 1006.0 |
| 20260504235529 | 73 | 185 | 7.8 | 13.9 | 0.00 | 0.00 | 0.00 | 59 | 1006.0 |
| 20260504234532 | 73 | 165 | 8.7 | 16.5 | 0.00 | 0.00 | 0.00 | 59 | 1006.0 |
| 20260504233527 | 73 | 180 | 11.3 | 18.2 | 0.00 | 0.00 | 0.00 | 57 | 1006.1 |
| 20260504232527 | 74 | 178 | 10.4 | 26.9 | 0.00 | 0.00 | 0.00 | 56 | 1006.1 |
| 20260504231525 | 74 | 169 | 11.3 | 20.0 | 0.00 | 0.00 | 0.00 | 56 | 1006.2 |
| 20260504230527 | 74 | 155 | 11.3 | 22.6 | 0.00 | 0.00 | 0.00 | 55 | 1006.3 |
| 20260504225526 | 75 | 178 | 10.4 | 19.1 | 0.00 | 0.00 | 0.00 | 55 | 1006.3 |
| 20260504225010 | 75 | 160 | 10.4 | 20.0 | 0.00 | 0.00 | 0.00 | 54 | 1006.1 |
| 20260504223525 | 76 | 182 | 11.3 | 21.7 | 0.00 | 0.00 | 0.00 | 54 | 1006.2 |
| 20260504222527 | 76 | 169 | 10.4 | 19.1 | 0.00 | 0.00 | 0.00 | 53 | 1006.0 |
| 20260504221523 | 76 | 165 | 9.6 | 20.0 | 0.00 | 0.00 | 0.00 | 55 | 1005.9 |
| 20260504220528 | 76 | 191 | 11.3 | 21.7 | 0.00 | 0.00 | 0.00 | 54 | 1006.0 |
| 20260504220009 | 76 | 176 | 13.0 | 22.6 | 0.00 | 0.00 | 0.00 | 51 | 1006.2 |
| 20260504214519 | 76 | 144 | 12.2 | 22.6 | 0.00 | 0.00 | 0.00 | 54 | 1006.2 |
| 20260504213519 | 77 | 173 | 12.2 | 20.9 | 0.00 | 0.00 | 0.00 | 56 | 1006.3 |
| 20260504212517 | 77 | 182 | 11.3 | 19.1 | 0.00 | 0.00 | 0.00 | 53 | 1006.4 |